Вернуться в каталог

DELTA 1 DEB

АктивенPO
NORAD 8542·DEBRIS·🇺🇸 United States

Запущен Jul 23, 1972 с Vandenberg Space Force Base

Loading…

Ближайшие Пролёты (ближайшие 24 часа)

TLE

СвежийSource: Space-Track

Эпоха: Sep 14, 2026, 02:37 UTC

1 08542U 72058GR  26257.10964833  .00000173  00000-0  11206-3 0  9991
2 08542  97.9419 123.6223 0349572 252.1816 104.0925 13.86681602718631

Отслеживайте DELTA 1 DEB в реальном времени с AllMySat

Download on the App Store